INTELSAT 10-02

Last updated on Sun Jun 21 2026 00:03:03 GMT+0000 (Coordinated Universal Time)

1 28358U 04022A 26171.39181049 -.00000016 00000+0 00000+0 0 9992 2 28358 0.0164 305.9154 0000101 152.4907 310.2364 1.00270649 80585
UTC large
Height (km)
Speed (km/s)
/
Latitude / Longitude
Inclination (degrees)
Orbital Period (minutes)
Azimuth
Elevation
Range (km)
Doppler Factor

Next 0 passes for location: London (51.5072 / 0.1276)

No passes found over London.
INTELSAT 10-02